Location: Newton_Old_St_Pauls
(35.6750°N, 81.2580°W)
Time: 22:01:56
(UTC-05:00)

Daily predictions for brighter satellites

Satellite Brightness Start Highest point End
(mag) Time Altitude Azimuth Time Altitude Azimuth Time Altitude Azimuth
SKYMED 2 3.9 18:05:03 10° NNE 18:09:14 45° E 18:13:24 10° S
CZ-4 R/B 4.4 18:07:14 10° SSE 18:11:21 73° ENE 18:15:29 10° N
Meteor 1-11 4.3 18:06:35 10° S 18:12:14 76° E 18:18:00 10° NNE
Cosmos 1626 3.1 18:09:31 10° SSE 18:12:44 28° E 18:15:57 10° NNE
Sich 1 3.9 18:12:48 10° SSE 18:16:37 29° E 18:20:26 10° NNE
Cosmos 2219 Rocket 4.0 18:12:48 10° WSW 18:17:38 29° WNW 18:22:29 10° N
CZ-2C R/B 3.4 18:13:52 10° S 18:18:43 52° W 18:23:26 10° NNW
Cosmos 1356 Rocket 3.9 18:16:17 10° SSE 18:19:56 35° E 18:23:36 10° NNE
Lacrosse 5 rocket 1.1 18:17:34 10° NW 18:21:24 84° NE 18:25:26 10° SE
ALOS 3.9 18:21:18 10° E 18:23:24 13° ENE 18:25:32 10° NE
Cosmos 2333 Rocket 3.8 18:19:24 10° SW 18:24:25 33° WNW 18:29:30 10° N
Cosmos 1633 Rocket 3.8 18:23:00 10° SSE 18:26:55 33° E 18:30:53 10° NNE
Cosmos 1726 3.3 18:26:14 10° NNW 18:29:52 48° W 18:33:31 10° SSW
MSX 4.3 18:25:22 10° S 18:31:01 68° WSW 18:36:45 10° NNW
Coronas F rocket 2.4 18:31:18 10° SE 18:33:09 20° E 18:33:36 19° ENE
Cosmos 2278 Rocket 3.0 18:29:30 10° NNW 18:35:05 58° WSW 18:40:36 10° S
FAST Rocket 4.0 18:34:56 10° S 18:37:31 49° E 18:40:11 10° NNE
Cosmos 1455 2.8 18:34:04 10° NNE 18:37:33 33° E 18:41:02 10° SE
USA 229 DEB 3.8 18:33:23 10° SSW 18:40:05 60° ESE 18:46:52 10° NE
USA 229 3.8 18:33:30 10° SSW 18:40:11 59° ESE 18:46:57 10° NE
Timation 1 Rocket 4.3 18:35:27 10° NNW 18:41:29 81° ENE 18:47:29 10° SSE
Cosmos 1703 3.4 18:39:36 10° S 18:43:29 78° W 18:47:23 10° N
Cosmos 1184 Rocket 2.9 18:41:42 10° S 18:44:58 55° E 18:48:15 10° NNE
CZ-4 R/B 4.4 18:43:21 10° SW 18:46:07 19° W 18:48:55 10° NW
SJ-6B 3.4 18:43:53 10° SE 18:47:38 37° ENE 18:51:27 10° N
Iridium 4 Rocket 3.6 18:47:43 10° SSE 18:51:50 36° E 18:55:44 10° NNE
Cosmos 1707 Rocket 3.4 18:51:12 10° N 18:55:34 84° E 18:59:54 10° S
Cosmos 2237 Rocket 4.3 18:51:33 10° WSW 18:56:00 24° WNW 19:00:29 10° N
COSMO-SKYMED 1 3.6 18:53:05 10° N 18:57:14 46° WNW 19:01:23 10° SSW
OTV 4 3.7 18:56:37 10° SW 18:57:25 11° SSW 18:58:12 10° SSW
Cosmos 2369 Rocket 3.9 18:59:04 10° NNE 19:01:00 15° NE 19:01:00 15° NE
Cosmos 1666 Rocket 3.8 18:58:40 10° SSW 19:02:58 72° W 19:07:22 10° N
SL-16 R/B 3.2 18:58:44 10° SW 19:04:09 47° WNW 19:09:37 10° N
H-2A ROCKET BODY 3.8 18:34:29 10° WSW 19:04:50 59° S 19:09:18 20° ESE
FREGAT/IRIS 2.5 19:03:14 10° SSE 19:06:14 59° ENE 19:09:16 10° N
Haruka 4.0 19:03:41 10° WSW 19:07:52 63° S 19:16:07 20° E
Cosmos 923 Rocket 3.9 19:07:36 10° S 19:12:47 73° ESE 19:16:59 16° NNE
Resurs 01 Rocket 2.1 19:08:43 10° SE 19:12:48 37° ENE 19:16:54 10° N
Cosmos 1933 Rocket 3.7 19:10:14 10° SSE 19:14:32 51° E 19:16:31 29° NNE
Cosmos 1680 Rocket 3.4 19:14:05 10° S 19:19:13 63° ESE 19:22:05 26° NNE
Cosmos 1655 Rocket 4.4 19:15:00 10° SSE 19:20:52 40° E 19:24:06 24° NE
TIMED 4.4 19:17:39 10° NNW 19:22:01 69° ENE 19:26:16 10° SSE
Cosmos 1627 Rocket 4.5 19:17:10 10° SSE 19:23:11 56° E 19:29:10 10° NNE
Lacrosse 4 Rocket 1.2 19:21:20 10° NNW 19:25:17 61° ENE 19:25:17 61° ENE
Genesis I 4.3 19:24:17 10° S 19:26:49 32° SSE 19:26:49 32° SSE
Helios 1B rocket 4.5 19:31:28 16° SSE 19:31:28 16° SSE 19:32:24 10° SSE
FENGYUN 3A 3.5 19:23:50 10° SSE 19:29:07 63° ENE 19:34:26 10° N
Tiangong 1 1.9 19:26:26 10° WSW 19:28:39 46° WSW 19:28:39 46° WSW
METEOR-M 4.5 19:24:07 10° S 19:29:25 66° WSW 19:34:45 10° NNW
NOSS 3-1 (C) 3.4 19:26:20 10° S 19:31:47 51° ESE 19:32:51 45° E
Cosmos 1869 3.4 19:27:51 10° N 19:31:54 76° W 19:35:55 10° S
Intelsat 5-1 Rocket 4.4 19:31:34 10° SSW 19:32:48 11° S 19:33:47 11° SSE
Cosmos 1470 Rocket 3.6 19:31:42 10° S 19:36:03 78° W 19:38:13 29° N
Cosmos 1943 3.2 19:36:27 10° S 19:41:55 55° ESE 19:41:55 55° ESE
USA 215 3.2 19:40:52 44° E 19:42:50 63° NE 19:49:17 10° NW
Cosmos 2242 Rocket 4.5 19:42:45 10° NNW 19:47:01 49° W 19:51:19 10° SSW
Cosmos 2026 Rocket 3.8 19:44:04 10° S 19:50:17 85° E 19:55:59 12° N
ATLAS 5 CENTAUR R/B 4.4 19:46:32 10° N 19:47:22 12° N 19:47:22 12° N
ATLAS 2A CENTAUR R/B 3.8 19:50:30 10° SSW 19:51:15 15° S 19:51:15 15° S
Cosmos 2112 Rocket 4.2 19:50:34 10° SSW 19:55:44 68° WNW 19:57:11 46° N
ALOS 2.8 19:55:45 10° S 20:00:19 56° W 20:04:55 10° NNW
Meteor 2-20 4.4 20:00:01 10° S 20:06:07 78° W 20:09:18 31° N
Cosmos 2369 Rocket 4.3 20:41:25 10° NNW 20:42:51 18° NNW 20:42:51 18° NNW
Resurs 01 Rocket 4.3 20:49:47 16° W 20:49:47 16° W 20:52:14 10° NW
